Погода в Коптеве

Россия / Орловская область     53°22′04″N   35°39′37″E
темп.,
°C
ветер,
м/с
пор.,
м/с
влажн.,
%
обл.,
%
осадки,
мм/ч
давл.,
гПа
погр.,
м
31 июля, сб
сб3100:00+19з367662 0.0 1008143
03:00+16зюз37837 0.0 1008105
06:00+17зюз36878 0.0 1008112
09:00+20юз4973100 0.0 1008363
12:00+25зюз610558 0.0 10081755
15:00+25зюз585987 0.0 1008819
18:00+25з595620 0.0 1009481
21:00+19з226892 0.0 101011
1 августа, вс
вс100:00+18ююз227060 0.0 101116
03:00+17ююз337366 0.0 101234
06:00+18ю357742 0.0 101285
09:00+23ю586397 0.0 1012347
12:00+28юз575092 0.0 10121221
15:00+29юз684681 0.0 10112681
18:00+28ююз36568 0.0 1009228
21:00+22ююв336240 0.0 101028
2 августа, пн
пн200:00+20ю346585 0.0 101054
03:00+19ю227793 0.0 100916
06:00+19ю4107678 0.0 1009190
09:00+23ююз6126643 0.1 1008670
12:00+28ююз795691 0.1 10071270
15:00+29юз6953100 0.1 10061467
18:00+25ю5125670 0.0 1004388
21:00+24ю8176465 0.2 1003501
3 августа, вт
вт300:00+19з3698100 14.4 1005258
03:00+17юз41196100 8.3 1004398
06:00+18зюз71188100 0.0 1005703
09:00+17з61092100 0.1 1008595
12:00+16зсз6108788 0.3 1010600
15:00+20зсз686721 0.6 10111328
18:00+20зюз48695 0.9 1011879
21:00+15з48795 1.0 1013131
4 августа, ср
ср400:00+14з35840 0.0 101490
03:00+13з35890 0.0 101587
06:00+13з35900 0.0 1016114
09:00+19зюз35700 0.0 1016480
12:00+22зюз34541 0.0 10171464
15:00+24зюз3448100 0.0 10162170
18:00+22сз136381 0.0 1017394
21:00+17с117296 0.0 101711